Temp
60 60 60 59 59 59 60 59 59 59 60 60 60 60 60 60 61 72 69 74 74 69 69 81 81 82 83 83 85 85 72 69 72 74 76 85 77 83 88 83 86 89 89 93 96
60 60 60 59 59 59 59 59 59 59 59 59 60 59 59 60 68 71 74 69 68 70 78 77 77 79 79 79 81 77 72 73 82 82 79 83 81 79 79 80 82 85 92 94 96
59 59 59 59 59 59 59 59 59 59 59 59 59 59 59 63 68 76 70 69 69 72 80 79 79 78 75 80 78 77 71 80 82 83 82 80 79 81 78 75 81 81 85 90 92
59 59 59 59 58 58 58 59 59 59 59 58 58 59 59 70 63 79 71 70 70 80 79 77 76 73 72 70 79 70 77 78 80 82 78 77 81 78 78 79 83 85 86 89 89
58 59 59 58 58 58 58 58 59 58 58 57 58 59 67 69 73 81 72 73 80 79 77 76 73 73 69 73 72 70 76 75 78 79 78 79 76 77 75 80 82 84 86 87 88
58 58 58 58 58 58 57 57 58 58 57 57 58 59 67 65 81 82 82 80 81 80 78 78 75 76 72 71 70 73 74 74 76 77 78 74 76 77 78 81 80 82 83 86 87
58 57 57 57 58 57 57 57 57 57 57 58 59 67 65 72 83 82 81 81 82 80 76 79 79 74 73 68 73 71 65 71 73 75 74 76 69 71 79 78 76 79 82 85 86
57 57 57 57 57 57 57 57 57 57 57 58 59 68 67 81 85 81 83 81 83 83 79 81 81 76 72 73 69 66 66 63 73 71 74 70 65 71 74 74 73 74 78 81 84
57 56 56 56 56 56 56 56 57 58 58 59 64 65 68 76 77 83 84 78 80 81 80 79 78 72 71 65 63 64 60 61 64 70 69 69 66 72 74 72 70 71 76 78 81
56 56 56 56 56 56 55 57 58 60 64 69 70 62 73 71 77 79 83 81 76 76 73 72 72 66 67 64 56 59 59 60 61 67 67 66 66 71 74 73 71 71 74 75 78
56 56 56 56 56 55 61 70 67 65 67 67 67 66 70 77 80 78 81 78 77 72 64 69 63 60 64 65 63 61 59 58 63 67 63 64 66 69 73 73 72 73 73 74 75
55 55 56 56 56 55 66 71 67 68 62 71 69 69 73 75 68 74 81 70 68 62 65 63 58 66 65 64 61 60 58 58 62 65 62 62 62 67 71 72 73 72 74 74 74
55 55 56 56 55 61 72 69 76 72 64 67 70 69 72 74 68 70 76 72 66 62 62 59 62 66 62 61 58 60 57 57 56 61 64 61 60 64 69 71 71 73 74 74 72
54 55 55 54 59 75 72 74 77 73 60 61 66 70 73 73 65 77 78 73 66 61 62 62 66 61 61 58 61 55 62 58 56 55 52 60 51 61 66 66 68 70 70 72 73
54 55 54 52 72 74 71 77 77 70 45 63 66 80 75 69 69 70 78 72 63 62 61 58 60 59 58 59 62 57 61 58 57 55 55 56 51 61 65 62 66 69 71 74 75
54 54 54 66 74 74 77 75 72 55 42 58 66 64 65 68 67 71 70 74 71 64 64 61 68 63 63 64 63 63 59 59 59 56 47 56 53 59 61 63 66 69 71 73 74
53 53 59 72 70 77 76 72 55 48 60 56 58 62 62 61 63 64 63 62 58 52 53 59 58 64 64 59 61 60 55 47 46 46 48 54 50 59 63 65 67 67 70 73 73
52 52 59 74 76 74 72 62 45 54 54 61 60 61 57 61 62 60 59 57 63 59 54 47 45 58 63 59 56 57 54 45 34 42 49 55 47 56 65 67 68 69 71 72 72
50 71 73 76 74 73 66 52 53 54 57 55 59 55 56 58 57 57 57 56 60 60 50 48 48 60 60 61 59 53 49 57 45 48 44 51 56 63 66 65 66 68 68 70 70
66 70 73 73 73 69 61 50 55 59 59 58 50 55 50 55 53 54 54 58 56 60 61 54 44 54 58 59 59 56 60 45 48 34 37 49 51 55 59 61 64 65 66 68 70
67 66 69 72 71 66 54 56 56 62 61 55 53 53 54 53 55 53 52 57 59 59 61 58 50 50 54 52 50 49 51 50 49 48 39 40 50 61 59 62 61 64 67 69 70
66 63 70 72 62 64 57 56 50 58 62 59 57 56 53 54 52 53 50 54 60 60 51 55 51 44 48 58 59 57 53 53 41 39 43 41 44 65 63 65 63 65 67 69 70
62 65 72 68 54 57 59 56 56 55 56 56 54 56 56 52 46 51 52 57 58 57 51 53 46 40 44 51 54 50 54 54 52 47 41 38 47 65 65 64 67 65 67 68 68
63 59 65 64 61 52 51 52 50 57 56 55 55 56 53 51 54 49 50 54 55 56 52 51 47 43 38 46 49 43 50 52 47 37 43 47 51 58 61 62 65 66 67 67 67
62 56 52 56 58 52 51 51 49 48 54 56 52 50 49 45 49 49 52 53 55 55 53 51 41 47 49 51 51 49 49 49 45 45 41 49 51 57 61 62 64 66 66 66 66
57 56 60 54 51 50 47 51 47 48 48 50 49 51 50 46 48 46 50 50 47 53 50 51 39 45 41 49 49 46 51 52 52 53 53 53 51 63 65 66 62 59 60 62 62
61 58 55 50 52 50 52 49 47 48 51 53 51 48 47 50 54 55 56 54 52 46 44 42 43 38 38 48 46 42 52 54 55 57 55 49 58 63 61 60 56 58 60 59 62
MSLP
1020.24 1019.87 1019.47 1019.12 1018.81 1018.50 1018.18 1017.88 1017.64 1017.39 1017.08 1016.79 1016.48 1016.24 1015.95 1015.58 1014.98 1013.74 1012.38 1011.70 1011.60 1012.00 1011.89 1010.79 1010.32 1009.74 1009.40 1008.32 1007.98 1007.59 1006.07 1004.53 1003.99 1003.89 1004.13 1004.71 1005.54 1005.38 1005.60 1005.75 1005.58 1005.30 1005.14 1004.99 1005.04
1020.10 1019.71 1019.32 1018.90 1018.53 1018.20 1017.93 1017.67 1017.37 1017.08 1016.81 1016.54 1016.27 1015.99 1015.67 1015.30 1013.99 1012.11 1011.41 1011.74 1011.98 1011.91 1011.03 1010.13 1009.45 1009.34 1008.52 1007.88 1007.52 1006.71 1005.33 1004.10 1003.90 1003.76 1004.05 1004.26 1004.95 1005.17 1005.44 1005.53 1005.21 1005.27 1004.97 1005.31 1005.10
1019.91 1019.47 1019.07 1018.71 1018.31 1017.98 1017.69 1017.38 1017.10 1016.79 1016.58 1016.32 1016.10 1015.78 1015.44 1014.93 1012.72 1010.35 1011.28 1011.74 1011.93 1011.79 1010.81 1010.24 1009.58 1009.00 1008.00 1007.47 1006.94 1006.27 1004.88 1004.25 1003.98 1004.21 1004.94 1004.70 1005.03 1005.53 1004.73 1004.97 1005.18 1005.36 1005.68 1005.62 1005.27
1019.80 1019.25 1018.81 1018.47 1018.08 1017.70 1017.37 1017.10 1016.78 1016.54 1016.31 1016.13 1015.91 1015.54 1015.05 1013.86 1010.87 1010.47 1011.36 1011.71 1011.79 1011.05 1010.49 1009.90 1009.36 1008.57 1007.68 1007.09 1006.62 1006.40 1005.70 1005.44 1004.77 1005.02 1005.74 1005.37 1005.28 1004.97 1005.25 1004.69 1005.56 1005.97 1006.06 1005.73 1005.34
1019.63 1019.10 1018.59 1018.21 1017.87 1017.47 1017.08 1016.72 1016.43 1016.24 1016.12 1016.01 1015.69 1015.34 1014.29 1012.23 1010.09 1010.70 1011.37 1011.56 1011.18 1010.77 1009.84 1009.28 1008.73 1008.15 1007.49 1007.09 1007.17 1006.90 1005.74 1006.25 1006.11 1005.77 1006.06 1005.88 1005.58 1005.35 1005.57 1005.22 1006.26 1006.14 1005.86 1005.57 1005.28
1019.35 1018.92 1018.46 1018.00 1017.57 1017.17 1016.81 1016.47 1016.17 1016.00 1015.91 1015.79 1015.53 1015.23 1013.54 1010.95 1010.23 1010.39 1010.54 1010.87 1010.45 1010.13 1009.49 1009.15 1008.64 1008.58 1007.87 1007.54 1007.37 1006.60 1006.47 1006.47 1006.25 1006.09 1005.94 1005.76 1005.38 1005.44 1005.36 1005.74 1005.78 1005.61 1005.68 1005.49 1005.20
1019.02 1018.65 1018.15 1017.67 1017.20 1016.82 1016.46 1016.09 1015.85 1015.70 1015.66 1015.57 1015.44 1014.55 1012.65 1010.09 1010.04 1010.38 1010.48 1010.20 1010.14 1009.97 1009.33 1009.39 1009.14 1008.79 1008.30 1007.73 1007.81 1007.55 1007.30 1006.56 1006.12 1005.98 1005.79 1006.08 1005.50 1004.95 1005.44 1005.91 1005.61 1005.26 1005.46 1005.56 1005.22
1018.69 1018.27 1017.81 1017.34 1016.92 1016.50 1016.06 1015.63 1015.30 1015.24 1015.37 1015.40 1015.29 1013.98 1010.91 1010.07 1010.11 1010.15 1010.00 1009.87 1009.99 1009.93 1009.88 1009.61 1009.39 1008.74 1008.39 1008.22 1007.97 1007.43 1007.02 1005.55 1004.92 1005.83 1005.93 1006.68 1004.43 1004.99 1006.12 1005.97 1005.91 1005.89 1005.57 1005.42 1005.18
1018.33 1017.84 1017.43 1016.99 1016.54 1016.13 1015.70 1015.16 1014.58 1014.69 1015.03 1015.10 1014.54 1013.21 1009.73 1010.12 1009.70 1009.29 1009.49 1009.19 1009.31 1009.54 1009.67 1009.70 1009.23 1008.51 1008.42 1007.81 1007.01 1006.76 1005.30 1005.23 1005.19 1006.12 1005.89 1006.02 1004.43 1004.97 1005.98 1005.89 1005.91 1006.08 1005.41 1005.03 1005.06
1018.07 1017.48 1016.94 1016.53 1016.19 1015.83 1015.42 1014.91 1014.73 1014.41 1014.67 1014.18 1013.44 1012.60 1009.79 1009.00 1009.14 1009.29 1009.25 1009.34 1009.06 1009.05 1009.14 1009.15 1008.59 1008.04 1007.57 1007.04 1005.58 1005.02 1005.60 1005.85 1005.38 1005.78 1006.09 1005.55 1005.14 1005.17 1005.42 1005.43 1005.50 1005.34 1005.10 1004.65 1004.75
1017.71 1017.10 1016.54 1016.14 1015.79 1015.49 1014.68 1014.23 1013.96 1013.23 1012.86 1011.45 1010.98 1010.38 1009.57 1009.35 1009.37 1008.93 1008.89 1008.91 1008.88 1008.82 1008.25 1008.38 1007.88 1006.86 1006.33 1006.73 1006.82 1006.71 1006.46 1006.02 1005.91 1006.27 1006.42 1005.41 1004.82 1004.71 1004.70 1004.74 1004.60 1004.60 1004.66 1004.42 1004.68
1017.42 1016.74 1016.11 1015.71 1015.45 1015.18 1014.51 1012.61 1013.22 1013.18 1011.40 1010.52 1010.45 1010.14 1009.79 1009.63 1008.86 1008.64 1008.86 1008.61 1008.41 1007.95 1008.22 1008.23 1007.26 1006.77 1007.50 1007.64 1007.52 1007.15 1006.63 1006.26 1006.47 1006.73 1006.72 1005.65 1004.75 1004.47 1004.11 1003.80 1003.73 1003.76 1004.20 1004.53 1005.11
1017.21 1016.52 1015.82 1015.44 1015.13 1014.74 1013.23 1013.12 1013.02 1012.78 1011.03 1009.72 1009.47 1009.13 1008.92 1009.29 1008.37 1008.00 1008.44 1008.11 1007.96 1007.74 1007.68 1007.35 1006.87 1007.27 1007.83 1007.56 1007.49 1007.03 1006.77 1006.53 1006.85 1006.84 1006.46 1005.58 1003.93 1003.15 1003.38 1003.46 1003.42 1003.92 1004.43 1004.87 1005.16
1017.00 1016.12 1015.58 1015.04 1015.15 1013.50 1012.76 1013.03 1012.71 1012.74 1010.21 1009.05 1008.48 1008.30 1008.69 1008.55 1008.06 1007.91 1008.08 1007.96 1007.79 1007.48 1007.48 1007.19 1007.50 1007.69 1007.53 1007.30 1007.37 1006.62 1006.91 1007.41 1007.32 1006.87 1005.19 1005.62 1003.24 1002.71 1003.02 1003.16 1003.45 1003.93 1004.20 1004.50 1004.84
1016.90 1016.01 1015.30 1014.88 1013.77 1012.84 1013.31 1012.86 1012.59 1012.47 1009.51 1008.76 1008.03 1007.95 1007.97 1007.90 1007.66 1007.49 1007.79 1007.79 1007.47 1007.36 1008.07 1006.89 1007.36 1007.52 1007.34 1007.03 1007.44 1006.96 1007.62 1007.56 1007.33 1006.63 1005.83 1004.76 1004.21 1001.46 1002.45 1002.60 1003.06 1003.40 1003.74 1004.02 1004.50
1016.66 1015.98 1015.24 1014.30 1013.56 1013.24 1013.04 1012.81 1012.43 1010.88 1008.62 1008.20 1007.96 1007.70 1007.50 1007.40 1007.34 1007.27 1007.51 1007.86 1007.53 1007.42 1007.47 1007.50 1007.42 1007.80 1007.32 1007.30 1007.55 1007.70 1007.65 1007.13 1006.66 1006.13 1004.73 1003.35 1003.42 1001.02 1001.81 1002.35 1002.67 1003.28 1003.67 1004.00 1004.16
1016.40 1015.70 1015.24 1013.83 1012.97 1013.13 1012.84 1011.96 1010.72 1009.19 1009.01 1008.29 1007.88 1008.02 1007.64 1007.32 1007.19 1007.27 1007.05 1007.02 1007.10 1006.90 1006.69 1006.65 1007.19 1007.50 1007.95 1007.48 1007.83 1007.81 1007.25 1005.80 1004.95 1004.55 1003.23 1004.19 1004.03 1002.08 1002.57 1003.10 1003.26 1003.41 1003.58 1003.57 1003.97
1015.94 1015.41 1014.61 1013.65 1013.33 1013.18 1012.31 1011.07 1009.70 1008.92 1008.72 1008.81 1008.61 1008.15 1007.65 1007.34 1007.15 1007.44 1007.40 1006.86 1006.96 1007.36 1007.01 1006.70 1006.49 1007.20 1007.44 1007.48 1006.99 1006.90 1007.20 1006.46 1005.38 1004.32 1003.23 1003.71 1002.84 1002.05 1003.04 1003.50 1003.69 1003.80 1003.78 1003.84 1003.98
1015.42 1014.26 1013.41 1013.23 1013.23 1012.96 1011.70 1010.10 1008.97 1009.27 1009.57 1009.25 1008.75 1008.06 1007.41 1008.02 1008.33 1007.78 1007.38 1007.12 1006.97 1007.53 1007.28 1006.69 1006.73 1007.50 1007.79 1007.87 1008.15 1007.31 1007.58 1007.34 1007.18 1006.59 1005.13 1003.33 1002.44 1002.56 1002.75 1003.21 1003.57 1003.53 1003.70 1003.63 1004.00
1014.93 1013.44 1012.73 1013.26 1013.08 1012.46 1011.03 1010.06 1009.89 1010.11 1010.12 1009.76 1009.06 1008.57 1007.89 1007.74 1008.26 1007.81 1007.61 1007.80 1007.89 1008.42 1008.41 1007.67 1007.82 1008.06 1007.88 1008.56 1008.44 1008.24 1007.72 1007.74 1007.66 1006.47 1004.28 1002.43 1001.77 1001.25 1001.97 1002.67 1003.29 1003.46 1003.69 1003.74 1003.95
1014.67 1012.75 1013.09 1013.17 1012.86 1011.42 1010.50 1009.93 1010.44 1010.39 1010.59 1010.11 1009.39 1008.97 1008.77 1008.64 1008.54 1008.30 1008.11 1008.36 1008.72 1008.44 1008.87 1008.64 1008.63 1008.14 1008.68 1007.99 1007.66 1008.29 1007.65 1008.19 1008.02 1006.98 1005.49 1003.44 1001.46 1002.01 1002.54 1002.91 1003.43 1003.66 1003.76 1003.77 1003.60
1014.42 1012.32 1013.15 1013.01 1011.74 1011.48 1010.78 1011.21 1011.61 1010.83 1010.64 1010.46 1010.18 1009.69 1009.43 1009.34 1009.07 1008.74 1008.59 1008.81 1009.48 1009.31 1009.16 1009.47 1009.24 1008.36 1007.75 1007.47 1007.73 1007.63 1007.07 1007.19 1007.61 1007.33 1006.73 1005.50 1002.88 1002.14 1002.60 1002.92 1003.56 1003.48 1003.64 1003.79 1003.61
1014.31 1013.14 1013.01 1012.86 1011.76 1011.47 1011.65 1011.72 1011.76 1011.30 1011.02 1010.66 1010.40 1010.43 1010.33 1010.13 1009.91 1009.29 1009.41 1010.10 1010.26 1010.03 1010.05 1010.50 1009.86 1008.64 1007.31 1007.63 1007.93 1007.76 1007.45 1007.65 1007.42 1007.49 1006.47 1005.14 1002.12 1002.31 1002.67 1002.67 1002.59 1002.75 1003.08 1003.40 1003.45
1014.85 1012.97 1012.77 1013.07 1013.57 1013.14 1012.57 1012.03 1011.93 1012.03 1011.76 1011.85 1011.27 1011.25 1010.91 1010.51 1010.34 1010.15 1010.05 1010.58 1011.14 1010.95 1011.72 1011.77 1010.57 1009.58 1008.18 1006.55 1007.80 1007.87 1007.42 1007.33 1007.40 1007.19 1005.95 1003.89 1001.75 1002.05 1001.87 1001.87 1001.96 1002.08 1002.31 1002.85 1003.17
1015.82 1014.98 1015.55 1013.46 1013.16 1013.79 1013.68 1013.03 1012.66 1012.45 1012.45 1012.23 1011.61 1011.92 1011.73 1011.22 1010.54 1010.36 1010.41 1010.53 1011.10 1011.39 1011.66 1011.47 1010.57 1009.79 1008.82 1008.10 1007.69 1007.32 1006.94 1006.62 1006.57 1006.57 1005.46 1003.84 1002.22 1001.86 1001.65 1001.63 1001.77 1001.95 1002.16 1002.23 1002.23
1016.76 1016.27 1015.72 1014.89 1014.79 1014.26 1013.90 1013.22 1013.50 1013.46 1013.59 1012.37 1012.35 1012.05 1012.39 1011.98 1011.67 1011.18 1011.03 1011.27 1011.35 1011.36 1011.43 1011.50 1010.96 1010.25 1009.38 1008.57 1007.82 1006.70 1005.95 1005.42 1004.90 1004.44 1003.72 1003.20 1002.04 1001.86 1001.27 1001.34 1001.63 1002.15 1002.44 1002.14 1002.29
1018.11 1018.01 1017.04 1015.23 1014.53 1014.36 1013.91 1014.06 1014.18 1014.64 1013.82 1013.50 1013.14 1013.05 1012.61 1012.26 1012.27 1011.96 1011.81 1011.92 1012.04 1012.27 1011.95 1012.15 1011.46 1010.82 1009.18 1008.05 1007.36 1005.64 1003.84 1003.52 1003.21 1003.12 1002.91 1002.05 1001.39 1001.29 1001.17 1001.61 1002.35 1002.42 1002.35 1002.26 1001.72
Wind_Speed
16 16 15 14 14 14 15 14 13 13 13 13 13 13 13 14 17 12 9 3 3 3 4 5 7 7 8 12 12 13 13 17 23 21 14 13 14 14 7 11 13 7 10 12 15
17 17 17 16 15 14 14 14 14 13 13 13 13 13 13 13 14 9 5 6 4 6 8 8 9 9 11 13 9 14 16 24 20 18 11 16 17 11 9 16 16 15 11 9 17
18 17 17 17 17 16 15 14 14 14 12 12 12 12 12 15 9 6 10 9 9 8 2 4 5 11 14 11 16 13 21 17 19 13 12 15 10 10 13 19 17 16 13 17 16
18 18 18 18 17 17 16 15 14 13 12 12 11 12 13 9 2 7 9 9 8 6 5 5 7 11 12 13 15 14 13 18 12 14 12 17 13 12 16 18 10 18 17 19 16
18 19 19 18 18 17 17 16 15 13 11 10 10 10 10 7 1 8 9 9 8 5 4 3 6 5 11 10 7 17 15 9 14 13 15 14 18 16 16 4 11 17 16 16 17
18 19 20 19 19 18 17 16 14 12 10 9 9 10 7 8 4 2 9 8 5 6 3 4 1 3 4 8 11 1 11 11 12 15 14 17 19 16 13 9 14 14 15 15 13
17 19 20 20 19 19 17 14 12 11 9 8 6 8 7 4 3 4 7 7 4 4 3 0 3 8 0 5 4 7 12 15 15 15 17 11 20 20 12 7 12 16 14 13 8
19 18 20 20 19 18 17 17 14 12 9 7 5 6 6 2 2 7 7 8 7 6 5 5 5 8 8 1 6 10 8 14 10 7 11 9 15 5 5 2 6 9 9 8 9
20 18 20 19 18 17 17 19 12 6 7 6 7 6 2 6 8 4 7 4 3 4 5 3 7 7 6 11 10 10 12 10 10 5 2 11 9 9 5 4 6 8 11 7 8
21 19 19 17 16 15 17 9 11 14 8 7 5 7 5 4 3 1 4 5 4 3 5 9 8 10 10 10 11 8 10 7 9 9 9 11 13 11 10 11 11 11 11 10 11
22 20 18 16 13 11 10 6 7 8 8 8 3 5 1 1 3 7 5 7 7 8 10 8 11 12 10 6 7 6 8 9 4 3 10 13 13 15 13 15 15 14 12 12 11
22 20 18 14 12 10 6 3 7 6 7 5 7 8 8 4 5 8 7 8 8 11 3 10 14 8 3 6 8 9 10 11 7 6 9 13 17 16 17 15 17 15 14 11 10
21 19 16 13 11 6 4 6 7 3 7 3 2 3 4 8 5 6 10 10 10 8 7 10 6 6 8 9 10 11 11 8 9 10 15 13 20 9 6 6 6 8 7 8 9
23 18 14 11 5 1 2 8 8 4 7 7 6 5 7 5 6 2 7 9 7 10 5 7 6 7 9 9 9 12 5 5 8 10 9 1 6 10 9 6 6 4 3 4 7
23 19 9 5 4 2 7 9 2 5 6 5 5 5 3 8 6 7 5 8 13 9 7 1 8 11 10 7 5 8 2 8 11 13 13 16 9 4 6 7 11 3 2 2 2
23 18 4 4 2 6 8 6 5 7 3 6 3 3 6 8 6 2 6 7 5 13 13 15 8 9 11 6 8 1 10 13 13 11 12 10 7 6 9 7 5 3 5 1 1
24 17 7 2 5 8 7 5 7 7 4 4 4 4 7 9 7 7 8 11 12 12 16 17 15 11 9 11 8 11 11 9 9 10 6 6 6 7 5 2 6 8 7 5 4
23 9 5 2 5 6 5 6 7 3 3 2 6 10 12 5 12 7 11 14 13 14 15 15 12 14 10 13 12 8 8 9 7 8 7 4 6 8 7 4 5 5 7 9 8
21 4 3 2 4 4 7 8 4 2 3 5 11 13 9 7 6 6 13 13 8 5 13 8 15 7 6 5 7 4 11 5 8 16 13 10 7 11 12 6 4 7 6 8 4
5 4 2 8 3 5 6 5 4 2 5 6 10 6 9 5 6 5 6 3 4 5 5 3 12 5 6 4 9 14 5 6 9 8 12 9 9 8 13 1 4 4 4 6 10
4 5 5 6 5 6 5 3 5 4 5 6 8 12 12 12 11 11 5 2 5 5 7 7 9 10 8 13 16 9 14 9 9 11 11 13 4 8 2 6 3 4 7 15 18
4 4 5 5 5 2 5 3 4 9 8 10 7 11 13 11 12 12 9 6 2 7 8 1 6 11 14 13 5 12 13 12 10 10 9 11 15 7 5 2 5 13 12 13 16
5 3 3 5 3 4 3 8 5 8 5 5 7 3 4 10 7 6 7 4 3 6 5 2 7 9 10 10 6 11 16 16 15 12 15 12 11 5 6 13 18 18 15 13 15
6 3 3 3 3 5 7 4 4 2 10 7 9 6 9 11 9 8 6 2 1 3 5 5 12 14 12 12 2 7 10 10 12 11 15 20 27 20 20 19 17 16 16 16 16
4 4 4 5 2 8 4 4 8 5 2 6 5 4 7 8 10 12 9 9 7 9 11 11 17 17 18 18 17 18 19 19 19 22 23 21 28 23 22 22 21 20 17 20 18
6 5 3 5 5 7 1 1 7 5 5 6 10 8 7 12 13 17 15 14 12 9 10 7 6 8 12 15 17 19 21 22 23 23 24 25 27 24 21 16 17 15 18 20 23
2 1 5 2 3 5 2 3 5 8 7 8 8 10 13 12 11 14 12 10 10 9 5 4 5 5 9 6 10 14 19 14 18 20 16 19 19 20 20 20 16 18 21 25 26
Wind_Direction
341 338 336 333 330 327 323 322 320 318 315 315 318 319 318 317 301 255 258 40 223 236 247 242 225 209 216 229 225 234 236 238 240 240 250 224 211 209 239 265 291 302 299 332 326
340 337 334 332 329 326 323 320 316 316 314 315 317 317 316 318 291 253 109 143 192 186 243 230 209 199 211 219 208 219 228 241 244 251 247 236 225 205 214 246 260 284 288 314 324
336 335 334 332 329 327 324 319 315 312 311 310 313 311 311 301 261 87 137 172 198 230 228 238 238 221 229 223 214 222 245 245 245 238 251 261 231 238 213 251 262 290 308 307 311
336 333 332 332 328 326 321 318 315 312 310 308 308 307 307 269 323 85 146 171 194 232 208 167 204 212 225 215 224 247 241 257 262 236 243 242 250 253 259 261 287 291 290 293 293
333 331 329 328 327 323 320 316 314 309 304 300 302 306 280 226 207 108 155 168 194 224 236 174 209 226 229 229 213 239 248 230 245 254 246 254 250 264 273 286 277 285 288 287 289
335 336 330 326 324 321 318 313 310 304 298 291 292 294 259 248 95 127 177 179 236 242 190 237 318 303 266 244 228 252 257 235 234 241 243 254 258 249 251 232 245 256 290 289 296
335 334 329 326 323 322 318 311 306 296 287 285 277 267 256 294 137 116 186 221 223 256 267 280 291 250 92 219 233 246 250 233 233 240 246 267 256 239 254 256 266 270 269 273 269
331 330 329 326 324 322 320 313 297 275 257 252 254 256 271 133 265 237 196 222 221 239 273 275 255 274 255 41 217 239 240 242 191 220 219 225 254 105 152 232 227 267 251 259 264
331 330 330 327 326 326 325 319 301 220 213 199 217 251 164 140 216 159 210 228 173 202 221 246 238 263 200 233 224 203 257 214 148 212 205 223 258 144 205 274 280 264 263 266 277
333 332 328 328 328 329 325 319 110 139 179 200 262 240 222 150 140 226 176 229 256 197 198 208 226 234 221 230 248 221 230 212 252 162 242 248 251 239 242 248 261 272 277 271 273
334 331 328 326 325 324 300 207 208 179 207 292 353 309 211 310 212 196 182 199 215 235 251 196 251 224 242 244 314 278 262 260 240 281 271 260 267 267 256 257 246 251 255 270 265
335 332 327 322 318 317 260 342 44 334 298 218 261 264 263 294 222 201 209 223 208 245 206 229 235 256 238 227 238 242 249 252 278 263 289 277 283 277 263 255 242 240 240 240 254
336 332 327 321 312 258 19 42 331 267 258 150 224 246 183 206 225 208 218 226 240 239 232 275 18 155 222 216 238 233 263 283 283 315 271 275 264 215 203 228 193 205 216 250 268
336 334 328 314 274 43 112 342 323 227 264 134 174 137 175 231 240 219 229 226 221 260 204 256 130 212 225 249 244 264 179 273 276 279 289 65 289 189 199 186 176 143 213 257 255
334 333 331 304 353 283 353 328 319 227 264 118 125 94 166 237 354 153 202 211 250 222 240 232 200 215 243 272 227 287 270 269 287 277 279 249 237 192 185 194 161 63 38 351 140
337 331 273 191 230 12 321 305 227 230 240 164 175 212 243 212 232 262 218 224 291 264 231 264 278 285 285 295 243 327 250 252 250 257 244 230 248 209 171 216 148 302 312 256 27
334 326 262 295 357 336 311 225 235 262 101 166 228 239 271 259 244 238 250 229 239 235 238 231 230 240 263 237 204 235 256 269 233 199 245 96 259 275 133 170 291 312 304 250 219
328 314 186 321 321 313 264 231 255 57 261 57 279 279 263 279 249 272 262 256 217 265 266 270 237 205 190 235 289 235 300 286 284 281 302 196 247 122 97 288 284 265 281 265 259
313 199 222 32 308 278 251 241 300 343 354 296 292 263 252 220 278 263 265 276 291 240 259 272 254 133 209 221 277 248 235 333 301 260 256 248 219 223 203 202 198 272 312 274 259
303 248 151 333 265 240 247 273 283 244 300 262 281 266 276 242 261 245 287 96 244 253 289 304 276 212 155 241 258 264 336 224 210 261 257 244 255 250 187 302 335 300 299 311 300
251 247 75 333 236 234 257 311 289 269 288 270 277 270 276 281 281 285 275 229 238 232 280 296 255 255 226 219 242 210 229 228 303 281 276 285 275 72 335 300 320 289 305 305 295
305 260 38 313 241 237 270 347 6 277 259 269 275 273 282 289 283 277 271 269 50 285 258 256 297 271 269 277 262 285 273 229 236 225 233 279 277 359 313 303 272 285 310 307 304
338 317 83 295 304 320 323 279 267 283 274 287 278 262 311 287 290 267 292 50 293 255 338 358 236 266 235 185 216 239 233 240 255 263 256 258 247 151 211 254 302 303 290 301 303
299 305 126 59 29 325 338 291 272 263 284 295 286 275 277 267 254 276 266 182 271 286 18 320 265 264 276 314 233 244 256 250 251 248 250 250 275 276 288 295 301 290 293 307 296
348 54 19 318 33 331 306 307 300 303 277 283 219 284 302 290 281 266 263 272 236 251 265 248 261 268 267 274 278 275 271 265 245 241 249 266 273 287 295 300 299 296 297 290 289
331 334 175 293 291 288 88 310 312 319 282 278 280 314 293 282 291 295 298 295 288 267 254 233 264 284 287 265 257 262 262 260 255 255 258 268 273 275 277 313 299 299 291 296 295
43 146 281 113 257 288 10 349 319 312 275 269 291 302 292 298 309 297 289 276 264 272 274 326 267 330 283 297 299 267 259 262 257 248 254 271 292 314 302 312 322 305 302 294 291